Location: *
(35.2348°S, 91.3916°E)
Time: 18:49:20
(UTC+00:00)

CZ-2C R/B - Pass Details

Date: 23 October 2019
Orbit: 784 x 871 km, 98.3° (Epoch: 14 November)

Event Time Altitude Azimuth Distance (km) Brightness Sun altitude
Exits shadow 13:25:04 20° 51° (NE) 1,783 3.8 -14.1°
Maximum altitude 13:28:13 40° 109° (ESE) 1,168 3.1 -14.7°
Drops below altitude 10° 13:33:03 10° 176° (S) 2,373 5.3 -15.6°
Sets 13:35:30 0° 183° (S) 3,310 6.2 -16.0°
